Regional Weather Roundup
Issued by NWS

Home | Current Version | Previous Version | Graphics & Text | Print | Product List | Glossary On
Versions: 1 2 3 4 5 6 7 8 9 10 11 12 13 14 15 16 17 18 19 20 21 22 23 24 25 26 27 28 29 30 31 32 33 34 35 36 37 38 39 40 41 42 43 44 45 46 47 48 49 50
574
ASUS43 KDTX 181410
RWRMI
MICHIGAN HOURLY REGIONAL WEATHER ROUNDUP
NATIONAL WEATHER SERVICE DETROIT/PONTIAC MI
1000 AM EDT WED OCT 18 2017

NOTE: "FAIR" INDICATES FEW OR NO CLOUDS BELOW 12,000 FEET WITH NO
SIGNIFICANT WEATHER AND/OR OBSTRUCTION TO VISIBILITY.

MIZ047>049-052>055-059>063-066>070-074>076-081>083-181500-
SOUTHEAST LOWER MICHIGAN

CITY           SKY/WX    TMP DP  RH WIND       PRES   REMARKS
ADRIAN         SUNNY     50  42  74 SW8       30.27R
ALMA           SUNNY     53  42  67 SW10G18   30.19S
ANN ARBOR      SUNNY     49  43  80 S5        30.24S
BAD AXE        SUNNY     55  42  63 SW10      30.19F
CARO           SUNNY     56  41  58 S9        30.20S
DETROIT CITY   SUNNY     55  41  59 SW9       30.26S
DETROIT        SUNNY     53  43  68 SW9       30.27R
FLINT          SUNNY     56  41  57 SW9       30.22S
GROSSE ILE     SUNNY     55  42  63 SW7       30.26S
HILLSDALE      SUNNY     52  41  66 S8        30.23S
HOWELL         SUNNY     54  42  64 SW6       30.22S

CITY           SKY/WX    TMP DP  RH WIND       PRES   REMARKS
JACKSON        SUNNY     55  41  59 S10       30.23R
LAMBERTVILLE   SUNNY     55  42  60 SW7       30.27R
LANSING        SUNNY     55  40  56 SW9       30.21S
LAPEER         FAIR      56  42  59 SW10      30.22F
MASON          SUNNY     55  42  60 S5        30.22S
MONROE         SUNNY     55  41  60 SW5       30.26S
MT. CLEMENS    SUNNY     57  44  62 SW6       30.24R
PONTIAC        SUNNY     53  42  66 S7        30.23S
PORT HOPE        N/A     57  42  57 SW8       30.15F
PORT HURON     SUNNY     57  43  58 SW8       30.24S
TRI CITIES     SUNNY     55  44  66 SW12      30.19S
MIDLAND        FAIR      54  43  66 SW9       30.16F
TROY           SUNNY     52  42  69 SW6       30.27R
SAGINAW HB     SUNNY     54  43  66 SW9       30.18F
$$
MIZ043>046-050>051-056>058-064>065-071>073-077>080-181500-
SOUTHWEST LOWER MICHIGAN

CITY           SKY/WX    TMP DP  RH WIND       PRES   REMARKS
BATTLE CREEK   SUNNY     53  43  68 SW12      30.22R
BENTON HARBOR  SUNNY     54  41  61 S8        30.19S
BIG RAPIDS     SUNNY     55  47  75 S7        30.14S
COLDWATER      SUNNY     54  40  59 SW9       30.24R
FREMONT        FAIR      53  50  89 S9        30.15S
HOLLAND        SUNNY     53  43  68 S13       30.18S
GRAND RAPIDS   SUNNY     56  42  59 S16       30.18S
IONIA          FAIR      54  41  62 S12       30.19S
KALAMAZOO      SUNNY     52  42  69 S8        30.22R
LUDINGTON      SUNNY     60  50  69 S15       30.09F
MARSHALL       SUNNY     53  41  62 SW8       30.22S
MOUNT PLEASANT SUNNY     56  43  61 SW9       30.16S
MUSKEGON       SUNNY     62  51  67 S17       30.15S
SOUTH HAVEN    SUNNY     56  42  58 S10       30.19S
$$
MIZ016>042-181500-
NORTHERN LOWER MICHIGAN

CITY           SKY/WX    TMP DP  RH WIND       PRES   REMARKS
ALPENA         SUNNY     57  48  72 SW13      30.10S
BEAVER ISLAND  SUNNY     60  53  76 SW14G26   29.99F
BELLAIRE       SUNNY     57  47  69 S5        30.06F
CADILLAC       SUNNY     58  48  69 SW13      30.11S
CHARLEVOIX     SUNNY     58  48  68 S13       30.05F
FRANKFORT      SUNNY     61  50  68 S8G20     30.06F
GAYLORD        SUNNY     54  45  71 SW16      30.07F
GRAYLING       SUNNY     55  45  70 SW12G18   30.11S
HARBOR SPRINGS SUNNY     58  47  66 S6        30.02F
HOUGHTON LAKE  SUNNY     53  47  79 SW8       30.13S
MANISTEE       SUNNY     57  50  77 VRB7      30.08F
OSCODA         SUNNY     54  45  69 SW14      30.13F
PELLSTON       SUNNY     59  48  67 S9        30.03F
ROGERS CITY    SUNNY     55  47  73 SW8       30.07S
TRAVERSE CITY  SUNNY     59  47  64 S9        30.05F
$$
MIZ007>008-015-181500-
EASTERN UPPER MICHIGAN

CITY           SKY/WX    TMP DP  RH WIND       PRES   REMARKS
KINROSS        SUNNY     57  51  80 S8        30.00F
MACKINAC ISLAN SUNNY     57  48  70 S12G17    30.00F
NEWBERRY       SUNNY     56  54  91 S14       29.95F
S. S. MARIE    SUNNY     53  51  93 S6        29.99F
MUNISING         N/A     54  48  80 S12G20    29.89F
$$
MIZ004>006-011>014-085-181500-
CENTRAL UPPER MICHIGAN

CITY           SKY/WX    TMP DP  RH WIND       PRES   REMARKS
MANISTIQUE     SUNNY     58  51  76 S12G20    29.96F
ESCANABA       SUNNY     56  47  71 S13       29.94F
MENOMINEE      SUNNY     57  47  69 SW16      29.97F
$$
MIZ001>003-009>011-084-181500-
WESTERN UPPER MICHIGAN

CITY           SKY/WX    TMP DP  RH WIND       PRES   REMARKS
IRON MOUNTAIN  SUNNY     50  43  77 SE6       29.89F
HOUGHTON       SUNNY     56  44  64 S13       29.77F
COPPER HARBOR    N/A     57  45  64 SW10G22   29.76S
IRONWOOD       SUNNY     56  44  64 SW10G23   29.80S
$$

ABBREVIATIONS USED IN REMARKS
   TC - TEMPERATURE IN CELSIUS
  WCI - WIND CHILL INDEX
   HX - HEAT INDEX
  VSB - VISIBILITY





USA.gov is the U.S. government's official web portal to all federal, state and local government web resources and services.